Time,TemperatureF,DewpointF,PressureIn,WindDirection,WindDirectionDegrees,WindSpeedMPH,WindSpeedGustMPH,Humidity,HourlyPrecipIn,Conditions,Clouds,dailyrainin,SolarRadiationWatts/m^2,SoftwareType,DateUTC
2013-03-12 07:28:00,52.8,51.4,29.77,SSE,159,0.0,0.0,95,0.46,,,0.21,1468,Wunderground v.1.15,2013-03-12 11:28:00,
2013-03-12 07:29:00,52.8,51.4,29.77,SSE,159,0.0,0.0,95,0.46,,,0.21,1466,Wunderground v.1.15,2013-03-12 11:29:00,
2013-03-12 07:30:00,52.8,51.4,29.77,SSE,159,0.0,0.0,95,0.33,,,0.21,1466,Wunderground v.1.15,2013-03-12 11:30:00,
2013-03-12 07:32:00,52.8,51.4,29.77,SSE,159,0.0,3.0,95,0.34,,,0.22,1466,Wunderground v.1.15,2013-03-12 11:32:00,
2013-03-12 07:37:00,52.6,51.2,29.77,SSE,161,2.0,3.0,95,0.43,,,0.26,1463,Wunderground v.1.15,2013-03-12 11:37:00,
2013-03-12 07:42:00,52.4,51.0,29.77,NW,316,3.0,4.0,95,0.40,,,0.29,1461,Wunderground v.1.15,2013-03-12 11:42:00,
2013-03-12 07:48:00,51.3,49.3,29.77,NW,311,6.0,11.0,93,0.66,,,0.34,1461,Wunderground v.1.15,2013-03-12 11:48:00,
2013-03-12 07:54:00,49.7,48.0,29.77,NW,319,10.0,12.0,94,0.44,,,0.38,1463,Wunderground v.1.15,2013-03-12 11:54:00,
2013-03-12 08:00:00,48.9,47.2,29.77,NW,322,10.0,14.0,94,0.39,,,0.42,1463,Wunderground v.1.15,2013-03-12 12:00:00,
2013-03-12 08:05:00,48.2,46.6,29.77,NNW,333,10.0,14.0,94,0.24,,,0.44,1463,Wunderground v.1.15,2013-03-12 12:05:00,
2013-03-12 08:11:00,47.7,46.1,29.78,NNW,333,11.0,14.0,94,0.88,,,0.51,1464,Wunderground v.1.15,2013-03-12 12:11:00,
2013-03-12 08:17:00,47.4,45.8,29.78,NNW,334,10.0,14.0,94,0.16,,,0.53,1464,Wunderground v.1.15,2013-03-12 12:17:00,
2013-03-12 08:23:00,46.9,45.3,29.77,NNW,330,10.0,13.0,94,0.13,,,0.55,1463,Wunderground v.1.15,2013-03-12 12:23:00,
2013-03-12 08:28:00,46.5,44.9,29.77,NW,326,11.0,13.0,94,0.11,,,0.55,1463,Wunderground v.1.15,2013-03-12 12:28:00,
2013-03-12 08:34:00,46.3,44.4,29.78,NW,321,11.0,12.0,93,0.08,,,0.56,1463,Wunderground v.1.15,2013-03-12 12:34:00,
2013-03-12 08:39:00,46.1,44.2,29.77,NW,319,12.0,16.0,93,0.07,,,0.57,1463,Wunderground v.1.15,2013-03-12 12:39:00,
2013-03-12 08:45:00,46.0,44.1,29.78,NNW,332,12.0,16.0,93,0.07,,,0.57,1466,Wunderground v.1.15,2013-03-12 12:45:00,
2013-03-12 08:51:00,45.9,44.0,29.78,NW,325,11.0,14.0,93,0.13,,,0.59,1466,Wunderground v.1.15,2013-03-12 12:51:00,
2013-03-12 08:57:00,45.7,43.8,29.77,NNW,330,11.0,14.0,93,0.09,,,0.59,1464,Wunderground v.1.15,2013-03-12 12:57:00,
2013-03-12 09:02:00,45.5,43.3,29.77,NW,325,12.0,12.0,92,0.06,,,0.60,1466,Wunderground v.1.15,2013-03-12 13:02:00,
2013-03-12 09:08:00,45.3,43.1,29.78,NW,304,13.0,15.0,92,0.10,,,0.61,1466,Wunderground v.1.15,2013-03-12 13:08:00,
2013-03-12 09:14:00,45.2,43.0,29.78,NW,313,12.0,14.0,92,0.09,,,0.62,1466,Wunderground v.1.15,2013-03-12 13:14:00,
2013-03-12 09:19:00,45.2,43.0,29.78,NW,317,12.0,16.0,92,0.09,,,0.62,1455,Wunderground v.1.15,2013-03-12 13:19:00,
2013-03-12 09:25:00,45.1,42.9,29.78,NW,323,12.0,18.0,92,0.08,,,0.63,1448,Wunderground v.1.15,2013-03-12 13:25:00,
2013-03-12 09:30:00,45.0,42.8,29.78,NW,312,11.0,15.0,92,0.06,,,0.63,1447,Wunderground v.1.15,2013-03-12 13:30:00,
2013-03-12 09:35:00,45.0,42.8,29.78,NW,308,12.0,15.0,92,0.04,,,0.63,1443,Wunderground v.1.15,2013-03-12 13:35:00,
2013-03-12 09:41:00,45.0,42.8,29.78,WNW,302,12.0,14.0,92,0.00,,,0.64,1440,Wunderground v.1.15,2013-03-12 13:41:00,
2013-03-12 09:46:00,45.0,42.8,29.78,NW,318,14.0,17.0,92,0.00,,,0.64,1438,Wunderground v.1.15,2013-03-12 13:46:00,
2013-03-12 09:51:00,45.0,42.8,29.78,NW,321,14.0,15.0,92,0.00,,,0.64,1434,Wunderground v.1.15,2013-03-12 13:51:00,
2013-03-12 09:57:00,45.0,42.5,29.79,NW,317,12.0,17.0,91,0.04,,,0.65,1433,Wunderground v.1.15,2013-03-12 13:57:00,
2013-03-12 10:03:00,44.9,42.4,29.80,NW,313,11.0,12.0,91,0.04,,,0.65,1431,Wunderground v.1.15,2013-03-12 14:03:00,
2013-03-12 10:09:00,44.9,42.4,29.80,NW,305,10.0,15.0,91,0.04,,,0.65,1429,Wunderground v.1.15,2013-03-12 14:09:00,
2013-03-12 10:14:00,44.9,42.4,29.80,NW,304,11.0,15.0,91,0.00,,,0.65,1427,Wunderground v.1.15,2013-03-12 14:14:00,
2013-03-12 10:20:00,45.0,42.5,29.79,NW,323,10.0,13.0,91,0.00,,,0.65,1427,Wunderground v.1.15,2013-03-12 14:20:00,
2013-03-12 10:26:00,45.0,42.5,29.79,WNW,285,10.0,13.0,91,0.00,,,0.65,1426,Wunderground v.1.15,2013-03-12 14:26:00,
2013-03-12 10:32:00,45.0,42.5,29.79,WNW,287,11.0,13.0,91,0.00,,,0.65,1426,Wunderground v.1.15,2013-03-12 14:32:00,
2013-03-12 10:38:00,45.0,42.2,29.79,NW,313,13.0,17.0,90,0.00,,,0.65,1422,Wunderground v.1.15,2013-03-12 14:38:00,
2013-03-12 10:44:00,45.2,42.4,29.79,WNW,303,14.0,14.0,90,0.00,,,0.65,1420,Wunderground v.1.15,2013-03-12 14:44:00,
2013-03-12 10:50:00,45.4,42.6,29.80,WNW,296,13.0,13.0,90,0.00,,,0.65,1419,Wunderground v.1.15,2013-03-12 14:50:00,
2013-03-12 10:55:00,45.5,42.4,29.79,NW,306,12.0,17.0,89,0.00,,,0.65,1417,Wunderground v.1.15,2013-03-12 14:55:00,
2013-03-12 11:01:00,45.9,42.8,29.80,NW,306,12.0,13.0,89,0.00,,,0.65,1412,Wunderground v.1.15,2013-03-12 15:01:00,
2013-03-12 11:07:00,46.2,42.8,29.80,WNW,283,12.0,18.0,88,0.00,,,0.65,1408,Wunderground v.1.15,2013-03-12 15:07:00,
2013-03-12 11:13:00,46.7,43.0,29.81,NW,318,13.0,14.0,87,0.00,,,0.65,1403,Wunderground v.1.15,2013-03-12 15:13:00,
2013-03-12 11:19:00,47.1,43.4,29.81,WNW,300,11.0,18.0,87,0.00,,,0.65,1401,Wunderground v.1.15,2013-03-12 15:19:00,
2013-03-12 11:25:00,47.3,43.3,29.81,WNW,290,10.0,12.0,86,0.00,,,0.65,1399,Wunderground v.1.15,2013-03-12 15:25:00,
2013-03-12 11:30:00,47.4,43.4,29.81,West,277,9.0,15.0,86,0.00,,,0.65,1399,Wunderground v.1.15,2013-03-12 15:30:00,
2013-03-12 11:35:00,47.4,42.8,29.81,WNW,290,9.0,15.0,84,0.00,,,0.66,1399,Wunderground v.1.15,2013-03-12 15:35:00,
2013-03-12 11:41:00,47.5,42.6,29.82,NW,320,8.0,11.0,83,0.00,,,0.66,1401,Wunderground v.1.15,2013-03-12 15:41:00,
2013-03-12 11:46:00,47.9,43.3,29.82,WNW,296,8.0,11.0,84,0.00,,,0.66,1404,Wunderground v.1.15,2013-03-12 15:46:00,
2013-03-12 11:52:00,48.3,43.4,29.82,WNW,298,10.0,10.0,83,0.00,,,0.66,1404,Wunderground v.1.15,2013-03-12 15:52:00,
2013-03-12 11:57:00,48.3,42.7,29.82,WNW,295,10.0,11.0,81,0.00,,,0.66,1408,Wunderground v.1.15,2013-03-12 15:57:00,
2013-03-12 12:03:00,48.0,42.1,29.82,West,277,10.0,15.0,80,0.00,,,0.66,1419,Wunderground v.1.15,2013-03-12 16:03:00,
2013-03-12 12:09:00,47.8,41.9,29.82,West,277,10.0,15.0,80,0.00,,,0.66,1434,Wunderground v.1.15,2013-03-12 16:09:00,
2013-03-12 12:14:00,47.8,41.9,29.82,WNW,288,10.0,10.0,80,0.00,,,0.66,1450,Wunderground v.1.15,2013-03-12 16:14:00,
2013-03-12 12:20:00,47.8,41.9,29.82,WNW,294,8.0,8.0,80,0.00,,,0.66,1463,Wunderground v.1.15,2013-03-12 16:20:00,
2013-03-12 12:26:00,47.8,41.9,29.82,WNW,284,8.0,12.0,80,0.00,,,0.66,1478,Wunderground v.1.15,2013-03-12 16:26:00,
2013-03-12 12:31:00,47.9,41.7,29.83,WNW,302,9.0,13.0,79,0.00,,,0.66,1485,Wunderground v.1.15,2013-03-12 16:31:00,
2013-03-12 12:37:00,48.0,41.5,29.82,NW,306,8.0,13.0,78,0.00,,,0.66,1496,Wunderground v.1.15,2013-03-12 16:37:00,
2013-03-12 12:43:00,48.5,42.9,29.82,WNW,282,8.0,10.0,81,0.00,,,0.66,,Wunderground v.1.15,2013-03-12 16:43:00,
2013-03-12 12:48:00,49.4,44.1,29.82,WNW,296,7.0,11.0,82,0.00,,,0.66,,Wunderground v.1.15,2013-03-12 16:48:00,
2013-03-12 12:54:00,49.5,42.2,29.83,WNW,283,9.0,14.0,76,0.00,,,0.66,1496,Wunderground v.1.15,2013-03-12 16:54:00,
2013-03-12 13:00:00,49.5,42.2,29.83,West,259,9.0,9.0,76,0.00,,,0.66,,Wunderground v.1.15,2013-03-12 17:00:00,
2013-03-12 13:05:00,49.7,43.1,29.83,West,279,8.0,18.0,78,0.00,,,0.66,,Wunderground v.1.15,2013-03-12 17:05:00,
2013-03-12 13:11:00,50.2,42.6,29.83,WNW,299,10.0,12.0,75,0.00,,,0.66,,Wunderground v.1.15,2013-03-12 17:11:00,
2013-03-12 13:16:00,50.4,42.4,29.83,West,280,13.0,17.0,74,0.00,,,0.66,,Wunderground v.1.15,2013-03-12 17:16:00,
2013-03-12 13:22:00,50.5,42.5,29.83,West,270,13.0,13.0,74,0.00,,,0.66,,Wunderground v.1.15,2013-03-12 17:22:00,
2013-03-12 13:28:00,50.3,42.0,29.83,WNW,292,14.0,23.0,73,0.00,,,0.66,,Wunderground v.1.15,2013-03-12 17:28:00,
2013-03-12 13:33:00,50.5,41.8,29.83,NNW,328,14.0,14.0,72,0.00,,,0.66,,Wunderground v.1.15,2013-03-12 17:33:00,
2013-03-12 13:39:00,50.8,42.5,29.82,West,259,13.0,16.0,73,0.00,,,0.66,,Wunderground v.1.15,2013-03-12 17:39:00,
2013-03-12 13:44:00,51.1,43.4,29.82,NW,318,12.0,13.0,75,0.00,,,0.66,,Wunderground v.1.15,2013-03-12 17:44:00,
2013-03-12 13:50:00,51.3,42.6,29.82,NNW,331,12.0,20.0,72,0.00,,,0.66,,Wunderground v.1.15,2013-03-12 17:50:00,
2013-03-12 13:56:00,51.3,42.6,29.83,West,277,12.0,20.0,72,0.00,,,0.66,,Wunderground v.1.15,2013-03-12 17:56:00,
2013-03-12 14:01:00,51.1,41.7,29.83,NW,308,12.0,13.0,70,0.00,,,0.66,,Wunderground v.1.15,2013-03-12 18:01:00,
2013-03-12 14:07:00,51.3,41.8,29.82,NW,308,12.0,14.0,70,0.00,,,0.66,,Wunderground v.1.15,2013-03-12 18:07:00,
2013-03-12 14:13:00,51.6,42.1,29.83,West,272,12.0,15.0,70,0.00,,,0.66,,Wunderground v.1.15,2013-03-12 18:13:00,
2013-03-12 14:19:00,51.1,41.3,29.82,WNW,298,12.0,18.0,69,0.00,,,0.66,,Wunderground v.1.15,2013-03-12 18:19:00,
2013-03-12 14:24:00,50.6,40.8,29.83,West,266,13.0,18.0,69,0.00,,,0.66,,Wunderground v.1.15,2013-03-12 18:24:00,
2013-03-12 14:30:00,51.0,41.9,29.82,West,266,12.0,16.0,71,0.00,,,0.66,,Wunderground v.1.15,2013-03-12 18:30:00,
2013-03-12 14:36:00,51.7,41.9,29.82,WNW,292,10.0,16.0,69,0.00,,,0.66,,Wunderground v.1.15,2013-03-12 18:36:00,
2013-03-12 14:41:00,51.8,41.6,29.82,NW,313,9.0,15.0,68,0.00,,,0.66,,Wunderground v.1.15,2013-03-12 18:41:00,
2013-03-12 14:46:00,51.2,41.0,29.82,WNW,284,11.0,16.0,68,0.00,,,0.66,,Wunderground v.1.15,2013-03-12 18:46:00,
2013-03-12 14:52:00,51.0,40.8,29.82,WNW,285,12.0,12.0,68,0.00,,,0.66,,Wunderground v.1.15,2013-03-12 18:52:00,
2013-03-12 14:58:00,50.5,40.3,29.82,NW,323,12.0,13.0,68,0.00,,,0.66,,Wunderground v.1.15,2013-03-12 18:58:00,
2013-03-12 15:03:00,50.5,40.7,29.82,NW,315,12.0,13.0,69,0.00,,,0.66,,Wunderground v.1.15,2013-03-12 19:03:00,
2013-03-12 15:08:00,50.5,41.4,29.83,NW,318,11.0,17.0,71,0.00,,,0.66,,Wunderground v.1.15,2013-03-12 19:08:00,
2013-03-12 15:14:00,50.0,40.6,29.83,NW,307,12.0,15.0,70,0.00,,,0.66,,Wunderground v.1.15,2013-03-12 19:14:00,
2013-03-12 15:19:00,50.0,41.3,29.83,NW,326,12.0,15.0,72,0.00,,,0.66,,Wunderground v.1.15,2013-03-12 19:19:00,
2013-03-12 15:24:00,49.8,40.0,29.83,WNW,294,13.0,17.0,69,0.00,,,0.66,,Wunderground v.1.15,2013-03-12 19:24:00,
2013-03-12 15:30:00,49.6,39.5,29.83,NW,306,14.0,14.0,68,0.00,,,0.66,,Wunderground v.1.15,2013-03-12 19:30:00,
2013-03-12 15:35:00,49.4,39.7,29.83,NW,323,14.0,18.0,69,0.00,,,0.66,,Wunderground v.1.15,2013-03-12 19:35:00,
2013-03-12 15:41:00,49.5,39.4,29.84,NW,308,14.0,14.0,68,0.00,,,0.66,,Wunderground v.1.15,2013-03-12 19:41:00,
2013-03-12 15:46:00,49.6,39.5,29.84,West,281,13.0,15.0,68,0.00,,,0.66,,Wunderground v.1.15,2013-03-12 19:46:00,
2013-03-12 15:52:00,49.4,39.7,29.84,NW,314,13.0,15.0,69,0.00,,,0.66,,Wunderground v.1.15,2013-03-12 19:52:00,
2013-03-12 15:57:00,49.0,39.6,29.84,WNW,284,13.0,15.0,70,0.00,,,0.66,,Wunderground v.1.15,2013-03-12 19:57:00,
2013-03-12 16:03:00,49.3,39.6,29.85,NNW,334,11.0,12.0,69,0.00,,,0.66,,Wunderground v.1.15,2013-03-12 20:03:00,
2013-03-12 16:08:00,49.2,39.5,29.85,NW,309,11.0,18.0,69,0.00,,,0.66,,Wunderground v.1.15,2013-03-12 20:08:00,
2013-03-12 16:14:00,48.7,38.2,29.85,NW,313,12.0,18.0,67,0.00,,,0.66,,Wunderground v.1.15,2013-03-12 20:14:00,
2013-03-12 16:19:00,48.1,38.4,29.85,WNW,298,13.0,18.0,69,0.00,,,0.66,,Wunderground v.1.15,2013-03-12 20:19:00,
2013-03-12 16:25:00,47.8,37.4,29.86,West,264,13.0,15.0,67,0.00,,,0.66,,Wunderground v.1.15,2013-03-12 20:25:00,
2013-03-12 16:31:00,47.4,36.6,29.85,NW,307,13.0,15.0,66,0.00,,,0.66,,Wunderground v.1.15,2013-03-12 20:31:00,
2013-03-12 16:37:00,47.6,37.6,29.84,NW,318,13.0,18.0,68,0.00,,,0.66,,Wunderground v.1.15,2013-03-12 20:37:00,
2013-03-12 16:42:00,47.1,37.4,29.85,NW,318,16.0,21.0,69,0.00,,,0.66,,Wunderground v.1.15,2013-03-12 20:42:00,
2013-03-12 16:48:00,47.0,37.4,29.86,NW,312,16.0,21.0,69,0.00,,,0.66,,Wunderground v.1.15,2013-03-12 20:48:00,
2013-03-12 16:54:00,47.0,37.0,29.86,NW,312,13.0,15.0,68,0.00,,,0.66,,Wunderground v.1.15,2013-03-12 20:54:00,
2013-03-12 17:00:00,46.8,36.8,29.86,NW,306,12.0,12.0,68,0.00,,,0.66,,Wunderground v.1.15,2013-03-12 21:00:00,
2013-03-12 17:05:00,46.7,36.7,29.86,NW,311,12.0,14.0,68,0.00,,,0.66,,Wunderground v.1.15,2013-03-12 21:05:00,
2013-03-12 17:10:00,47.1,36.7,29.86,WNW,296,9.0,9.0,67,0.00,,,0.66,,Wunderground v.1.15,2013-03-12 21:10:00,
2013-03-12 17:16:00,47.3,36.1,29.87,NW,321,7.0,13.0,65,0.00,,,0.66,,Wunderground v.1.15,2013-03-12 21:16:00,
2013-03-12 17:22:00,47.2,36.0,29.86,NNW,342,7.0,14.0,65,0.00,,,0.66,,Wunderground v.1.15,2013-03-12 21:22:00,
2013-03-12 17:27:00,47.1,35.9,29.87,NW,319,8.0,14.0,65,0.00,,,0.66,,Wunderground v.1.15,2013-03-12 21:27:00,
2013-03-12 17:33:00,47.2,36.0,29.87,NW,325,9.0,9.0,65,0.00,,,0.66,,Wunderground v.1.15,2013-03-12 21:33:00,
2013-03-12 17:38:00,47.2,36.0,29.87,NNW,327,8.0,11.0,65,0.00,,,0.66,,Wunderground v.1.15,2013-03-12 21:38:00,
2013-03-12 17:44:00,46.8,36.0,29.88,NW,317,10.0,13.0,66,0.00,,,0.66,,Wunderground v.1.15,2013-03-12 21:44:00,
2013-03-12 17:50:00,47.0,35.4,29.88,WNW,287,9.0,13.0,64,0.00,,,0.66,,Wunderground v.1.15,2013-03-12 21:50:00,
2013-03-12 17:56:00,46.8,35.3,29.88,WNW,298,10.0,15.0,64,0.00,,,0.66,,Wunderground v.1.15,2013-03-12 21:56:00,
2013-03-12 18:01:00,46.6,35.1,29.89,NW,313,10.0,11.0,64,0.00,,,0.66,,Wunderground v.1.15,2013-03-12 22:01:00,
2013-03-12 18:07:00,46.4,34.5,29.89,WNW,292,9.0,13.0,63,0.00,,,0.66,,Wunderground v.1.15,2013-03-12 22:07:00,
2013-03-12 18:13:00,46.3,34.4,29.89,WNW,291,8.0,12.0,63,0.00,,,0.66,,Wunderground v.1.15,2013-03-12 22:13:00,
2013-03-12 18:19:00,45.9,34.0,29.90,WNW,302,8.0,17.0,63,0.00,,,0.66,,Wunderground v.1.15,2013-03-12 22:19:00,
2013-03-12 18:25:00,45.7,35.4,29.90,WNW,288,9.0,15.0,67,0.00,,,0.66,,Wunderground v.1.15,2013-03-12 22:25:00,
2013-03-12 18:30:00,45.4,34.3,29.90,WNW,286,8.0,9.0,65,0.00,,,0.66,,Wunderground v.1.15,2013-03-12 22:30:00,
2013-03-12 18:36:00,45.4,34.7,29.90,NW,317,6.0,9.0,66,0.00,,,0.66,,Wunderground v.1.15,2013-03-12 22:36:00,
2013-03-12 18:41:00,45.1,34.0,29.90,NW,309,5.0,8.0,65,0.00,,,0.66,,Wunderground v.1.15,2013-03-12 22:41:00,
2013-03-12 18:47:00,44.7,33.6,29.91,West,273,5.0,8.0,65,0.00,,,0.66,,Wunderground v.1.15,2013-03-12 22:47:00,
2013-03-12 18:53:00,44.2,33.6,29.91,WNW,302,4.0,6.0,66,0.00,,,0.66,,Wunderground v.1.15,2013-03-12 22:53:00,
2013-03-12 18:59:00,43.7,33.5,29.91,WNW,296,7.0,10.0,67,0.00,,,0.66,,Wunderground v.1.15,2013-03-12 22:59:00,
2013-03-12 19:04:00,43.1,32.9,29.91,WNW,298,8.0,12.0,67,0.00,,,0.66,,Wunderground v.1.15,2013-03-12 23:04:00,
2013-03-12 19:10:00,42.8,33.0,29.91,NNW,329,10.0,10.0,68,0.00,,,0.66,,Wunderground v.1.15,2013-03-12 23:10:00,
2013-03-12 19:15:00,42.5,32.7,29.91,West,281,10.0,13.0,68,0.00,,,0.66,,Wunderground v.1.15,2013-03-12 23:15:00,
2013-03-12 19:21:00,42.2,32.4,29.92,NW,308,9.0,9.0,68,0.00,,,0.66,,Wunderground v.1.15,2013-03-12 23:21:00,
2013-03-12 19:26:00,41.8,32.7,29.92,NW,309,8.0,9.0,70,0.00,,,0.66,,Wunderground v.1.15,2013-03-12 23:26:00,
2013-03-12 19:32:00,41.5,32.4,29.92,West,281,7.0,13.0,70,0.00,,,0.66,,Wunderground v.1.15,2013-03-12 23:32:00,
2013-03-12 19:38:00,41.4,32.3,29.93,WNW,297,7.0,13.0,70,0.00,,,0.66,,Wunderground v.1.15,2013-03-12 23:38:00,
2013-03-12 19:44:00,41.3,32.2,29.93,NW,311,6.0,7.0,70,0.00,,,0.66,,Wunderground v.1.15,2013-03-12 23:44:00,
2013-03-12 19:50:00,41.3,32.2,29.93,West,275,6.0,9.0,70,0.00,,,0.66,,Wunderground v.1.15,2013-03-12 23:50:00,
2013-03-12 19:56:00,41.2,32.5,29.93,WNW,290,8.0,11.0,71,0.00,,,0.66,,Wunderground v.1.15,2013-03-12 23:56:00,
2013-03-12 20:01:00,41.2,32.2,29.94,WNW,302,7.0,14.0,70,0.00,,,0.66,,Wunderground v.1.15,2013-03-13 00:01:00,
2013-03-12 20:07:00,41.1,32.4,29.94,WNW,296,7.0,14.0,71,0.00,,,0.66,,Wunderground v.1.15,2013-03-13 00:07:00,
2013-03-12 20:13:00,41.0,32.0,29.94,NW,317,7.0,11.0,70,0.00,,,0.66,,Wunderground v.1.15,2013-03-13 00:13:00,
2013-03-12 20:19:00,40.9,31.9,29.95,West,273,7.0,11.0,70,0.00,,,0.66,,Wunderground v.1.15,2013-03-13 00:19:00,
2013-03-12 20:24:00,40.8,31.8,29.95,West,281,7.0,9.0,70,0.00,,,0.66,,Wunderground v.1.15,2013-03-13 00:24:00,
2013-03-12 20:30:00,40.7,31.7,29.95,NW,313,7.0,12.0,70,0.00,,,0.66,,Wunderground v.1.15,2013-03-13 00:30:00,
2013-03-12 20:36:00,40.8,31.4,29.95,West,280,7.0,15.0,69,0.00,,,0.66,,Wunderground v.1.15,2013-03-13 00:36:00,
2013-03-12 20:42:00,40.7,31.7,29.96,West,281,8.0,9.0,70,0.00,,,0.66,,Wunderground v.1.15,2013-03-13 00:42:00,
2013-03-12 20:47:00,40.6,31.6,29.96,West,272,9.0,15.0,70,0.00,,,0.66,,Wunderground v.1.15,2013-03-13 00:47:00,
2013-03-12 20:52:00,40.6,31.6,29.96,West,278,9.0,11.0,70,0.00,,,0.66,,Wunderground v.1.15,2013-03-13 00:52:00,
2013-03-12 20:58:00,40.5,31.5,29.96,WNW,284,8.0,12.0,70,0.00,,,0.66,,Wunderground v.1.15,2013-03-13 00:58:00,
2013-03-12 21:03:00,40.4,31.4,29.96,West,261,8.0,12.0,70,0.00,,,0.66,,Wunderground v.1.15,2013-03-13 01:03:00,
2013-03-12 21:09:00,40.4,31.4,29.96,West,268,7.0,12.0,70,0.00,,,0.66,,Wunderground v.1.15,2013-03-13 01:09:00,
2013-03-12 21:14:00,40.2,31.2,29.96,West,269,4.0,6.0,70,0.00,,,0.66,,Wunderground v.1.15,2013-03-13 01:14:00,
2013-03-12 21:20:00,39.9,31.3,29.97,NW,316,2.0,4.0,71,0.00,,,0.66,,Wunderground v.1.15,2013-03-13 01:20:00,
2013-03-12 21:25:00,39.7,31.4,29.97,NW,304,4.0,7.0,72,0.00,,,0.66,,Wunderground v.1.15,2013-03-13 01:25:00,
2013-03-12 21:31:00,39.5,31.2,29.97,West,261,4.0,14.0,72,0.00,,,0.66,,Wunderground v.1.15,2013-03-13 01:31:00,
2013-03-12 21:37:00,39.7,31.4,29.97,WNW,302,5.0,14.0,72,0.00,,,0.66,,Wunderground v.1.15,2013-03-13 01:37:00,
2013-03-12 21:42:00,39.7,31.4,29.97,WNW,296,6.0,11.0,72,0.00,,,0.66,,Wunderground v.1.15,2013-03-13 01:42:00,